AZU5093 SBVT-SBKP

Flight info

Callsign AZU5093
Flight time 1h 18m
Altitude 38000
Route USVAG DCT SIDUR DCT EDMUS
Aircraft E195/M-SDE3GILORVW/S

Departure

Time 2026-04-27 00:34
Airport Eurico de Aguiar Salles International Airport (SBVT)

Arrival

Time 2026-04-27 01:52
Airport Viracopos International Airport (SBKP)
Time Latitude Longitude Altitude Speed Heading
2026-04-27 00:15 -20.26540 -40.28165 32 ft 0 kts 261°
2026-04-27 00:21 -20.26539 -40.28157 32 ft 4 kts 261°
2026-04-27 00:22 -20.26534 -40.28129 32 ft 4 kts 246°
2026-04-27 00:22 -20.26520 -40.28108 32 ft 4 kts 203°
2026-04-27 00:22 -20.26501 -40.28104 31 ft 1 kts 171°
2026-04-27 00:22 -20.26498 -40.28104 31 ft 0 kts 171°
2026-04-27 00:27 -20.26500 -40.28104 31 ft 1 kts 172°
2026-04-27 00:27 -20.26521 -40.28101 32 ft 4 kts 172°
2026-04-27 00:27 -20.26555 -40.28096 32 ft 6 kts 173°
2026-04-27 00:27 -20.26584 -40.28093 32 ft 3 kts 173°
2026-04-27 00:28 -20.26606 -40.28088 32 ft 3 kts 162°
2026-04-27 00:28 -20.26622 -40.28079 33 ft 2 kts 152°
2026-04-27 00:28 -20.26632 -40.28072 33 ft 1 kts 144°
2026-04-27 00:28 -20.26635 -40.28070 33 ft 1 kts 140°
2026-04-27 00:29 -20.26642 -40.28059 33 ft 3 kts 124°
2026-04-27 00:29 -20.26646 -40.28032 33 ft 5 kts 81°
2026-04-27 00:29 -20.26621 -40.27989 33 ft 9 kts 65°
2026-04-27 00:29 -20.26615 -40.27957 32 ft 0 kts 81°
2026-04-27 00:30 -20.26614 -40.27957 32 ft 0 kts 81°
2026-04-27 00:31 -20.26612 -40.27939 32 ft 4 kts 81°
2026-04-27 00:32 -20.26605 -40.27893 31 ft 8 kts 81°
2026-04-27 00:32 -20.26590 -40.27845 31 ft 3 kts 19°
2026-04-27 00:32 -20.26566 -40.27852 30 ft 5 kts 348°
2026-04-27 00:32 -20.26546 -40.27855 30 ft 1 kts 352°
2026-04-27 00:33 -20.26522 -40.27859 30 ft 19 kts 352°
2026-04-27 00:33 -20.26161 -40.27911 28 ft 85 kts 352°
2026-04-27 00:33 -20.25352 -40.28028 28 ft 147 kts 353°
2026-04-27 00:33 -20.24223 -40.28189 426 ft 173 kts 358°
2026-04-27 00:34 -20.22992 -40.28025 1174 ft 191 kts 19°
2026-04-27 00:34 -20.21793 -40.27226 1942 ft 222 kts 45°
2026-04-27 00:34 -20.20712 -40.26028 3339 ft 220 kts 39°
2026-04-27 00:34 -20.19483 -40.25051 4602 ft 220 kts 34°
2026-04-27 00:35 -20.18185 -40.24149 5360 ft 235 kts 28°
2026-04-27 00:35 -20.16538 -40.23702 5999 ft 253 kts 355°
2026-04-27 00:35 -20.14843 -40.24321 6640 ft 267 kts 325°
2026-04-27 00:35 -20.13477 -40.25678 7211 ft 279 kts 304°
2026-04-27 00:36 -20.12488 -40.27511 7060 ft 293 kts 293°
2026-04-27 00:36 -20.11731 -40.29477 7040 ft 284 kts 292°
2026-04-27 00:36 -20.10904 -40.31390 7014 ft 283 kts 294°
2026-04-27 00:36 -20.10064 -40.33284 7021 ft 284 kts 295°
2026-04-27 00:37 -20.09213 -40.35179 7016 ft 284 kts 294°
2026-04-27 00:37 -20.08449 -40.37100 7083 ft 282 kts 282°
2026-04-27 00:37 -20.08523 -40.39187 7710 ft 291 kts 251°
2026-04-27 00:37 -20.09532 -40.41038 8605 ft 293 kts 224°
2026-04-27 00:38 -20.11133 -40.42372 9635 ft 294 kts 211°
2026-04-27 00:38 -20.12874 -40.43561 10476 ft 307 kts 211°
2026-04-27 00:38 -20.14695 -40.44851 11159 ft 320 kts 212°
2026-04-27 00:38 -20.16577 -40.46156 12074 ft 325 kts 212°
2026-04-27 00:39 -20.18496 -40.47463 13039 ft 329 kts 212°
2026-04-27 00:39 -20.20444 -40.48765 14016 ft 333 kts 211°
2026-04-27 00:39 -20.22434 -40.50065 14839 ft 339 kts 211°
2026-04-27 00:39 -20.24482 -40.51348 15674 ft 345 kts 211°
2026-04-27 00:40 -20.26586 -40.52624 16488 ft 351 kts 210°
2026-04-27 00:40 -20.28707 -40.53948 17276 ft 356 kts 214°
2026-04-27 00:40 -20.30786 -40.55412 18082 ft 361 kts 215°
2026-04-27 00:40 -20.32901 -40.56885 18780 ft 365 kts 215°
2026-04-27 00:41 -20.35044 -40.58365 19411 ft 369 kts 215°
2026-04-27 00:41 -20.37217 -40.59861 20037 ft 374 kts 215°
2026-04-27 00:41 -20.39407 -40.61372 20635 ft 378 kts 214°
2026-04-27 00:41 -20.41625 -40.62897 21249 ft 382 kts 214°
2026-04-27 00:42 -20.43871 -40.64442 21838 ft 386 kts 214°
2026-04-27 00:42 -20.46138 -40.66000 22431 ft 390 kts 214°
2026-04-27 00:42 -20.48429 -40.67572 22999 ft 394 kts 214°
2026-04-27 00:42 -20.50742 -40.69165 23562 ft 398 kts 214°
2026-04-27 00:43 -20.53077 -40.70768 24059 ft 400 kts 214°
2026-04-27 00:43 -20.55391 -40.72360 24565 ft 402 kts 214°
2026-04-27 00:43 -20.57748 -40.73983 25071 ft 404 kts 214°
2026-04-27 00:43 -20.60119 -40.75616 25520 ft 406 kts 214°
2026-04-27 00:44 -20.62503 -40.77255 25970 ft 409 kts 214°
2026-04-27 00:44 -20.64899 -40.78906 26405 ft 411 kts 214°
2026-04-27 00:44 -20.67305 -40.80563 26841 ft 413 kts 214°
2026-04-27 00:44 -20.69579 -40.82427 27214 ft 413 kts 229°
2026-04-27 00:45 -20.71280 -40.84881 27655 ft 412 kts 238°
2026-04-27 00:45 -20.72860 -40.87433 28160 ft 412 kts 238°
2026-04-27 00:45 -20.74459 -40.89986 28559 ft 415 kts 238°
2026-04-27 00:45 -20.76064 -40.92554 28935 ft 417 kts 238°
2026-04-27 00:46 -20.77674 -40.95127 29439 ft 415 kts 238°
2026-04-27 00:46 -20.79278 -40.97686 29986 ft 413 kts 238°
2026-04-27 00:46 -20.80870 -41.00229 30419 ft 411 kts 238°
2026-04-27 00:46 -20.82457 -41.02765 30812 ft 410 kts 238°
2026-04-27 00:47 -20.84038 -41.05294 31195 ft 409 kts 238°
2026-04-27 00:47 -20.85615 -41.07816 31601 ft 407 kts 238°
2026-04-27 00:47 -20.87186 -41.10330 32021 ft 406 kts 238°
2026-04-27 00:47 -20.88753 -41.12839 32433 ft 405 kts 238°
2026-04-27 00:48 -20.90308 -41.15329 32909 ft 402 kts 238°
2026-04-27 00:48 -20.91855 -41.17810 33322 ft 400 kts 238°
2026-04-27 00:48 -20.93393 -41.20280 33710 ft 399 kts 238°
2026-04-27 00:48 -20.94927 -41.22744 34071 ft 398 kts 238°
2026-04-27 00:49 -20.96458 -41.25207 34373 ft 397 kts 238°
2026-04-27 00:49 -20.97983 -41.27662 34648 ft 396 kts 239°
2026-04-27 00:49 -20.99507 -41.30115 34916 ft 396 kts 239°
2026-04-27 00:49 -21.01029 -41.32565 35162 ft 395 kts 239°
2026-04-27 00:50 -21.02546 -41.35012 35410 ft 394 kts 239°
2026-04-27 00:50 -21.05582 -41.39906 35837 ft 394 kts 239°
2026-04-27 00:50 -21.07094 -41.42340 36138 ft 391 kts 239°
2026-04-27 00:51 -21.08595 -41.44766 36386 ft 390 kts 240°
2026-04-27 00:51 -21.10089 -41.47186 36614 ft 389 kts 240°
2026-04-27 00:51 -21.11578 -41.49609 36840 ft 389 kts 240°
2026-04-27 00:51 -21.13061 -41.52025 37036 ft 388 kts 240°
2026-04-27 00:52 -21.14545 -41.54440 37256 ft 388 kts 240°
2026-04-27 00:52 -21.16027 -41.56855 37435 ft 388 kts 240°
2026-04-27 00:52 -21.17511 -41.59270 37577 ft 388 kts 240°
2026-04-27 00:52 -21.18993 -41.61682 37753 ft 388 kts 240°
2026-04-27 00:53 -21.20475 -41.64097 37902 ft 387 kts 240°
2026-04-27 00:53 -21.21932 -41.66473 38103 ft 382 kts 240°
2026-04-27 00:53 -21.23400 -41.68863 38106 ft 386 kts 240°
2026-04-27 00:54 -21.26377 -41.73713 38139 ft 393 kts 240°
2026-04-27 00:54 -21.29424 -41.78677 37989 ft 404 kts 240°
2026-04-27 00:55 -21.32543 -41.83765 37984 ft 412 kts 240°
2026-04-27 00:55 -21.35718 -41.88947 37972 ft 420 kts 240°
2026-04-27 00:56 -21.38949 -41.94226 37976 ft 427 kts 240°
2026-04-27 00:56 -21.42210 -41.99555 37985 ft 432 kts 240°
2026-04-27 00:57 -21.45544 -42.05011 37963 ft 435 kts 240°
2026-04-27 00:57 -21.48864 -42.10450 37981 ft 435 kts 240°
2026-04-27 00:58 -21.52163 -42.15856 37963 ft 436 kts 240°
2026-04-27 00:58 -21.55499 -42.21335 37978 ft 436 kts 240°
2026-04-27 00:59 -21.58784 -42.26736 37980 ft 434 kts 240°
2026-04-27 00:59 -21.62083 -42.32166 37984 ft 434 kts 240°
2026-04-27 01:00 -21.65386 -42.37600 37988 ft 434 kts 240°
2026-04-27 01:00 -21.68683 -42.43038 37991 ft 435 kts 240°
2026-04-27 01:01 -21.71986 -42.48487 37990 ft 435 kts 240°
2026-04-27 01:01 -21.75292 -42.53939 38001 ft 435 kts 240°
2026-04-27 01:02 -21.78036 -42.58474 37998 ft 435 kts 240°
2026-04-27 01:02 -21.81331 -42.63931 38007 ft 435 kts 240°
2026-04-27 01:03 -21.84626 -42.69391 38004 ft 435 kts 240°
2026-04-27 01:03 -21.87920 -42.74852 38026 ft 435 kts 241°
2026-04-27 01:04 -21.91197 -42.80294 38020 ft 432 kts 241°
2026-04-27 01:04 -21.94472 -42.85726 38016 ft 433 kts 241°
2026-04-27 01:05 -21.97746 -42.91173 38019 ft 433 kts 241°
2026-04-27 01:05 -22.01017 -42.96620 38022 ft 433 kts 241°
2026-04-27 01:06 -22.04288 -43.02062 38011 ft 431 kts 241°
2026-04-27 01:06 -22.07535 -43.07481 38019 ft 431 kts 242°
2026-04-27 01:07 -22.10789 -43.12907 38021 ft 431 kts 241°
2026-04-27 01:07 -22.14039 -43.18340 38022 ft 431 kts 241°
2026-04-27 01:08 -22.17278 -43.23770 38008 ft 431 kts 242°
2026-04-27 01:08 -22.20520 -43.29199 38010 ft 429 kts 242°
2026-04-27 01:09 -22.23757 -43.34606 38008 ft 429 kts 242°
2026-04-27 01:09 -22.26987 -43.40028 38007 ft 429 kts 242°
2026-04-27 01:10 -22.30219 -43.45444 38005 ft 430 kts 242°
2026-04-27 01:10 -22.33448 -43.50877 37988 ft 430 kts 242°
2026-04-27 01:11 -22.36649 -43.56263 37995 ft 428 kts 242°
2026-04-27 01:11 -22.39868 -43.61672 37988 ft 428 kts 242°
2026-04-27 01:12 -22.43086 -43.67104 37977 ft 430 kts 242°
2026-04-27 01:12 -22.46313 -43.72545 37979 ft 430 kts 242°
2026-04-27 01:13 -22.49534 -43.77986 37985 ft 430 kts 242°
2026-04-27 01:13 -22.52745 -43.83423 37971 ft 428 kts 242°
2026-04-27 01:14 -22.55967 -43.88859 37978 ft 429 kts 242°
2026-04-27 01:14 -22.59178 -43.94302 37982 ft 429 kts 242°
2026-04-27 01:15 -22.62385 -43.99750 37978 ft 429 kts 242°
2026-04-27 01:15 -22.65591 -44.05196 37976 ft 428 kts 243°
2026-04-27 01:16 -22.68790 -44.10628 37981 ft 428 kts 243°
2026-04-27 01:16 -22.71980 -44.16065 37978 ft 428 kts 243°
2026-04-27 01:17 -22.75148 -44.21517 37979 ft 424 kts 247°
2026-04-27 01:17 -22.77406 -44.27332 37974 ft 421 kts 252°
2026-04-27 01:18 -22.79614 -44.33236 37984 ft 420 kts 252°
2026-04-27 01:18 -22.81803 -44.39081 37978 ft 422 kts 252°
2026-04-27 01:19 -22.84016 -44.44972 37980 ft 422 kts 252°
2026-04-27 01:19 -22.86234 -44.50872 37973 ft 423 kts 252°
2026-04-27 01:20 -22.88449 -44.56769 37992 ft 423 kts 252°
2026-04-27 01:20 -22.90665 -44.62678 38007 ft 423 kts 252°
2026-04-27 01:21 -22.92876 -44.68585 37979 ft 421 kts 252°
2026-04-27 01:21 -22.95086 -44.74480 37999 ft 423 kts 252°
2026-04-27 01:22 -22.97295 -44.80391 37995 ft 423 kts 252°
2026-04-27 01:22 -22.99503 -44.86310 38009 ft 424 kts 252°
2026-04-27 01:23 -23.01713 -44.92236 38011 ft 423 kts 252°
2026-04-27 01:23 -23.03920 -44.98156 38005 ft 423 kts 252°
2026-04-27 01:24 -23.06119 -45.04073 38001 ft 423 kts 252°
2026-04-27 01:24 -23.08317 -45.09991 38002 ft 422 kts 252°
2026-04-27 01:25 -23.10510 -45.15913 38001 ft 423 kts 252°
2026-04-27 01:25 -23.12705 -45.21840 38008 ft 423 kts 252°
2026-04-27 01:26 -23.14895 -45.27771 38007 ft 423 kts 252°
2026-04-27 01:26 -23.16914 -45.33748 38015 ft 419 kts 259°
2026-04-27 01:27 -23.18092 -45.39925 38005 ft 419 kts 261°
2026-04-27 01:27 -23.19678 -45.46016 38000 ft 420 kts 256°
2026-04-27 01:28 -23.21571 -45.52040 38001 ft 422 kts 255°
2026-04-27 01:28 -23.23497 -45.58042 38033 ft 419 kts 258°
2026-04-27 01:29 -23.25112 -45.64130 38024 ft 419 kts 257°
2026-04-27 01:29 -23.26773 -45.70210 38028 ft 419 kts 257°
2026-04-27 01:30 -23.28450 -45.76279 38044 ft 419 kts 257°
2026-04-27 01:30 -23.30136 -45.82347 38045 ft 419 kts 257°
2026-04-27 01:31 -23.31810 -45.88375 38044 ft 419 kts 257°
2026-04-27 01:31 -23.33495 -45.94446 37974 ft 419 kts 257°
2026-04-27 01:32 -23.35178 -46.00517 37981 ft 419 kts 257°
2026-04-27 01:32 -23.36862 -46.06599 37985 ft 420 kts 257°
2026-04-27 01:33 -23.38567 -46.12684 37994 ft 421 kts 257°
2026-04-27 01:33 -23.40288 -46.18766 38009 ft 420 kts 257°
2026-04-27 01:34 -23.41997 -46.24817 38024 ft 419 kts 257°
2026-04-27 01:34 -23.43704 -46.30876 38035 ft 419 kts 257°
2026-04-27 01:35 -23.44704 -46.37025 38066 ft 410 kts 277°
2026-04-27 01:35 -23.44090 -46.40034 38093 ft 408 kts 291°
2026-04-27 01:35 -23.42746 -46.42751 38132 ft 408 kts 303°
2026-04-27 01:35 -23.41139 -46.45311 38023 ft 410 kts 303°
2026-04-27 01:36 -23.39527 -46.47862 38040 ft 408 kts 303°
2026-04-27 01:36 -23.37943 -46.50386 38012 ft 397 kts 302°
2026-04-27 01:36 -23.36446 -46.52862 37442 ft 384 kts 302°
2026-04-27 01:36 -23.34982 -46.55208 36905 ft 366 kts 303°
2026-04-27 01:37 -23.33529 -46.57410 36346 ft 352 kts 304°
2026-04-27 01:37 -23.32090 -46.59550 35560 ft 349 kts 304°
2026-04-27 01:37 -23.30628 -46.61676 34814 ft 354 kts 305°
2026-04-27 01:37 -23.29090 -46.63792 34105 ft 361 kts 311°
2026-04-27 01:38 -23.27204 -46.65647 32945 ft 373 kts 316°
2026-04-27 01:38 -23.25201 -46.67488 31541 ft 380 kts 316°
2026-04-27 01:38 -23.23196 -46.69373 30264 ft 382 kts 316°
2026-04-27 01:38 -23.21125 -46.71181 28933 ft 381 kts 319°
2026-04-27 01:39 -23.19043 -46.72948 27654 ft 378 kts 318°
2026-04-27 01:39 -23.16989 -46.74712 26432 ft 374 kts 318°
2026-04-27 01:39 -23.14978 -46.76461 25262 ft 367 kts 317°
2026-04-27 01:39 -23.13006 -46.78193 24143 ft 362 kts 318°
2026-04-27 01:40 -23.11049 -46.79899 22825 ft 360 kts 318°
2026-04-27 01:40 -23.09103 -46.81598 21436 ft 358 kts 318°
2026-04-27 01:40 -23.07165 -46.83292 20129 ft 356 kts 318°
2026-04-27 01:40 -23.05238 -46.84981 18880 ft 355 kts 318°
2026-04-27 01:41 -23.03494 -46.86842 17553 ft 350 kts 303°
2026-04-27 01:41 -23.02561 -46.89244 16220 ft 346 kts 281°
2026-04-27 01:41 -23.02193 -46.91826 14931 ft 345 kts 279°
2026-04-27 01:41 -23.01574 -46.94318 13662 ft 343 kts 296°
2026-04-27 01:42 -23.00221 -46.96438 12296 ft 342 kts 308°
2026-04-27 01:42 -22.98721 -46.98381 11006 ft 339 kts 308°
2026-04-27 01:42 -22.97337 -47.00309 11090 ft 294 kts 306°
2026-04-27 01:42 -22.96121 -47.01999 11793 ft 289 kts 307°
2026-04-27 01:43 -22.94846 -47.03748 11079 ft 299 kts 307°
2026-04-27 01:43 -22.93536 -47.05512 10168 ft 299 kts 308°
2026-04-27 01:43 -22.92241 -47.07224 9412 ft 290 kts 308°
2026-04-27 01:43 -22.90960 -47.08913 8496 ft 289 kts 308°
2026-04-27 01:44 -22.89714 -47.10533 8143 ft 269 kts 309°
2026-04-27 01:44 -22.88577 -47.12059 7850 ft 253 kts 306°
2026-04-27 01:44 -22.87575 -47.13582 7579 ft 244 kts 305°
2026-04-27 01:44 -22.86573 -47.15054 7374 ft 243 kts 307°
2026-04-27 01:45 -22.85555 -47.16499 7158 ft 235 kts 307°
2026-04-27 01:45 -22.84583 -47.17860 6890 ft 222 kts 308°
2026-04-27 01:45 -22.83659 -47.19142 6630 ft 210 kts 308°
2026-04-27 01:45 -22.82926 -47.20449 6395 ft 199 kts 289°
2026-04-27 01:46 -22.82770 -47.21897 6153 ft 193 kts 265°
2026-04-27 01:46 -22.83176 -47.23284 5966 ft 197 kts 242°
2026-04-27 01:46 -22.84093 -47.24415 5534 ft 206 kts 224°
2026-04-27 01:46 -22.85252 -47.25389 5033 ft 215 kts 220°
2026-04-27 01:47 -22.86438 -47.26353 4760 ft 210 kts 220°
2026-04-27 01:47 -22.87604 -47.27282 4501 ft 206 kts 214°
2026-04-27 01:47 -22.88969 -47.27772 4187 ft 206 kts 184°
2026-04-27 01:47 -22.90286 -47.27395 4070 ft 192 kts 150°
2026-04-27 01:48 -22.91324 -47.26590 3921 ft 178 kts 133°
2026-04-27 01:48 -22.92053 -47.25543 3837 ft 172 kts 128°
2026-04-27 01:48 -22.92801 -47.24571 3783 ft 160 kts 131°
2026-04-27 01:48 -22.93478 -47.23664 3769 ft 153 kts 127°
2026-04-27 01:49 -22.94115 -47.22743 3711 ft 152 kts 127°
2026-04-27 01:49 -22.94766 -47.21839 3638 ft 152 kts 128°
2026-04-27 01:49 -22.95417 -47.20934 3562 ft 152 kts 127°
2026-04-27 01:49 -22.96070 -47.20014 3375 ft 154 kts 128°
2026-04-27 01:50 -22.96717 -47.19107 3184 ft 150 kts 127°
2026-04-27 01:50 -22.97139 -47.18516 3051 ft 148 kts 127°
2026-04-27 01:50 -22.97756 -47.17651 2865 ft 141 kts 126°
2026-04-27 01:50 -22.98342 -47.16817 2693 ft 137 kts 125°
2026-04-27 01:51 -22.98922 -47.15995 2499 ft 137 kts 127°
2026-04-27 01:51 -22.99511 -47.15175 2296 ft 138 kts 126°
2026-04-27 01:51 -23.00086 -47.14363 2161 ft 129 kts 127°
2026-04-27 01:51 -23.00565 -47.13697 2156 ft 90 kts 128°
2026-04-27 01:52 -23.00888 -47.13248 2157 ft 62 kts 128°
2026-04-27 01:52 -23.01122 -47.12923 2154 ft 34 kts 134°
2026-04-27 01:52 -23.01263 -47.12836 2157 ft 23 kts 155°
2026-04-27 01:52 -23.01329 -47.12806 2154 ft 0 kts 157°
2026-04-27 01:53 -23.01334 -47.12804 2155 ft 1 kts 161°
2026-04-27 01:53 -23.01346 -47.12803 2158 ft 2 kts 175°
2026-04-27 01:53 -23.01366 -47.12807 2160 ft 3 kts 198°
2026-04-27 01:54 -23.01386 -47.12826 2160 ft 4 kts 235°
2026-04-27 01:54 -23.01390 -47.12860 2160 ft 5 kts 281°
2026-04-27 01:54 -23.01361 -47.12905 2156 ft 10 kts 309°
2026-04-27 01:54 -23.01311 -47.12971 2160 ft 13 kts 309°
2026-04-27 01:55 -23.01253 -47.13052 2158 ft 14 kts 308°
2026-04-27 01:55 -23.01190 -47.13139 2155 ft 15 kts 308°
2026-04-27 01:55 -23.01123 -47.13232 2158 ft 16 kts 308°
2026-04-27 01:55 -23.01052 -47.13332 2158 ft 17 kts 308°
2026-04-27 01:56 -23.00897 -47.13548 2154 ft 19 kts 308°
2026-04-27 01:56 -23.00813 -47.13665 2157 ft 20 kts 307°
2026-04-27 01:56 -23.00725 -47.13787 2157 ft 21 kts 308°
2026-04-27 01:57 -23.00638 -47.13909 2161 ft 20 kts 308°
2026-04-27 01:57 -23.00556 -47.14023 2158 ft 18 kts 308°
2026-04-27 01:57 -23.00485 -47.14122 2160 ft 15 kts 308°
2026-04-27 01:57 -23.00424 -47.14208 2160 ft 14 kts 308°
2026-04-27 01:58 -23.00369 -47.14284 2161 ft 12 kts 308°
2026-04-27 01:58 -23.00320 -47.14353 2158 ft 12 kts 308°
2026-04-27 01:58 -23.00266 -47.14427 2156 ft 13 kts 308°
2026-04-27 01:58 -23.00205 -47.14512 2159 ft 15 kts 308°
2026-04-27 01:59 -23.00141 -47.14612 2158 ft 17 kts 308°
2026-04-27 01:59 -23.00062 -47.14713 2161 ft 18 kts 307°
2026-04-27 01:59 -23.00009 -47.14822 2158 ft 15 kts 269°
2026-04-27 01:59 -23.00062 -47.14907 2160 ft 13 kts 217°
2026-04-27 02:00 -23.00135 -47.14965 2155 ft 12 kts 218°
2026-04-27 02:00 -23.00199 -47.15021 2160 ft 12 kts 219°
2026-04-27 02:00 -23.00263 -47.15074 2160 ft 11 kts 217°
2026-04-27 02:00 -23.00324 -47.15125 2159 ft 11 kts 218°
2026-04-27 02:01 -23.00382 -47.15164 2161 ft 9 kts 185°
2026-04-27 02:01 -23.00424 -47.15128 2161 ft 7 kts 128°
2026-04-27 02:01 -23.00454 -47.15087 2161 ft 7 kts 127°
2026-04-27 02:01 -23.00481 -47.15050 2158 ft 6 kts 128°
2026-04-27 02:02 -23.00504 -47.15018 2158 ft 5 kts 128°
2026-04-27 02:02 -23.00524 -47.14991 2161 ft 4 kts 129°
2026-04-27 02:02 -23.00530 -47.14968 2158 ft 3 kts 83°
2026-04-27 02:02 -23.00517 -47.14952 2158 ft 4 kts 40°
2026-04-27 02:03 -23.00496 -47.14935 2161 ft 2 kts 37°
2026-04-27 02:03 -23.00492 -47.14932 2155 ft 0 kts 34°